User: anonymous   Login
Location: Caltech
(34.1382°N, 118.1253°W)
Time: 21:58:56
(UTC-08:00)
Language:

Cosmos 1697 Rocket - Orbit

View from above orbital plane
View from above orbital plane
View from above satellite
View from above satellite

Ground track
Ground track

The orbit data is extracted from the following two-line orbital elements,

1 16182U 85097B   17058.71325896 -.00000254  00000-0 -10420-3 0  9992
2 16182  71.0007 238.3923 0009803 247.0183 173.7502 14.16209925620721
Epoch (UTC): 27 February 2017 17:07:05
Eccentricity: 0.0009803
inclination: 71.0007°
perigee height: 831 km
apogee height: 845 km
right ascension of ascending node: 238.3923°
argument of perigee: 247.0183°
revolutions per day: 14.16209925
mean anomaly at epoch: 173.7502°
orbit number at epoch: 62072

The dashed part of the orbit path shows where the satellite is in the earth's shadow,  

DLR